Flag for Germany Weather past 2 weeks in Dinslaken, North Rhine-Westphalia, Germany

Now
53 °F

Rain. Low clouds.


Feels Like: 53 °F
Forecast: 45 / 63 °F
Wind: 3 mph from Northwest

Location: Essen

Current Time: May 28, 2015 at 6:08:51 PM

Latest Report: May 28, 2015 at 5:00 PM


Visibility: 3 mi

Pressure: 29.92 "Hg

Humidity: 95%

Dew point: 52 °F

Location of DinslakenLocation

Historic Weather in Dinslaken — Graph

°F

Dinslaken temperature yesterday

Maximum temperature yesterday: 60 °F (at 7:00 PM)
Minimum temperature yesterday: 46 °F (at 1:00 AM)
Average temperature yesterday: 54 °F

Past Weeks' High & Low Weather Summary

 TemperatureHumidityPressure
High67 °F (May 22, 4:00 PM)100% (May 16, 4:00 PM)30.34 "Hg (May 16, 4:00 PM)
Low42 °F (May 16, 6:00 AM)37% (May 13, 6:00 PM)29.64 "Hg (May 18, 9:00 PM)
Average54 °F69%30.07 "Hg
* Reported May 13 5:00 PM — May 28 5:00 PM, Dinslaken, Weather by CustomWeather, © 2015

Note: Actual official high and low records may vary slightly from our data, if they occured in-between our weather recording intervals... More about our weather records

Advertising

Dinslaken weather history for previous 24 hours

 ConditionsComfort  
Time TempWeatherWind HumidityBarometerVisibility
5:00 PM
Thu, May 28
53 °FRain. Low clouds.3 mph95%29.92 "Hg3 mi
4:00 PM63 °FPassing clouds.8 mph61%29.91 "Hg19 mi
3:00 PM61 °FOvercast.7 mph60%29.92 "Hg25 mi
2:00 PM64 °FPartly sunny.7 mph50%29.91 "Hg16 mi
1:00 PM62 °FOvercast.7 mph56%29.92 "Hg17 mi
12:00 PM60 °FOvercast.8 mph59%29.93 "Hg22 mi
11:00 AM60 °FOvercast.7 mph63%29.93 "Hg25 mi
10:00 AM61 °FOvercast.6 mph60%29.94 "Hg22 mi
9:00 AM58 °FOvercast.6 mph66%29.95 "Hg22 mi
8:00 AM55 °FOvercast.5 mph69%29.96 "Hg19 mi
7:00 AM54 °FOvercast.3 mph69%29.96 "Hg22 mi
6:00 AM53 °FOvercast.3 mph69%29.97 "Hg22 mi
5:00 AM53 °FOvercast.2 mph69%29.98 "Hg22 mi
4:00 AM53 °FOvercast.2 mph66%29.99 "Hg22 mi
3:00 AM54 °FOvercast.3 mph64%30.02 "Hg22 mi
2:00 AM54 °FOvercast.3 mph62%30.03 "Hg22 mi
1:00 AM54 °FOvercast.5 mph61%30.05 "Hg22 mi
12:00 AM54 °FOvercast.6 mph58%30.06 "Hg25 mi
11:00 PM
Wed, May 27
56 °FOvercast.6 mph56%30.08 "Hg25 mi
10:00 PM56 °FOvercast.5 mph58%30.10 "Hg25 mi
9:00 PM56 °FPartly sunny.3 mph61%30.11 "Hg25 mi
8:00 PM59 °FPartly sunny.3 mph54%30.12 "Hg25 mi
7:00 PM60 °FScattered clouds.5 mph51%30.14 "Hg19 mi
6:00 PM60 °FScattered clouds.3 mph55%30.16 "Hg25 mi
Weather by CustomWeather, © 2015

See weather overviewHow to use our weather pages